EDT,Max TemperatureF,Mean TemperatureF,Min TemperatureF,Max Dew PointF,MeanDew PointF,Min DewpointF,Max Humidity, Mean Humidity, Min Humidity, Max Sea Level PressureIn, Mean Sea Level PressureIn, Min Sea Level PressureIn, Max VisibilityMiles, Mean VisibilityMiles, Min VisibilityMiles, Max Wind SpeedMPH, Mean Wind SpeedMPH, Max Gust SpeedMPH,PrecipitationIn, CloudCover, Events, WindDirDegrees
2014-4-1,79,66,53,40,32,20,48,31,14,30.08,29.96,29.91,10,10,10,23,9,32,0.00,3,,240
2014-4-2,61,54,46,53,47,39,100,82,54,30.18,30.10,30.04,10,8,2,12,6,,0.45,6,Rain-Thunderstorm,61
2014-4-3,66,60,53,59,54,50,100,93,75,30.06,29.89,29.68,10,6,1,16,7,20,1.20,7,Rain-Thunderstorm,105
2014-4-4,64,54,44,59,52,31,100,85,58,30.01,29.71,29.51,10,7,2,21,6,33,0.99,8,Rain-Thunderstorm,211
2014-4-5,53,46,39,33,29,26,73,58,43,30.22,30.16,30.03,10,10,10,18,11,31,0.00,3,,329
2014-4-6,60,44,30,38,32,27,89,61,35,30.22,30.11,29.96,10,10,9,12,3,16,0.00,0,,88
2014-4-7,57,52,46,57,49,35,100,92,57,29.94,29.58,29.37,10,6,1,16,5,23,0.79,7,Rain-Thunderstorm,33
2014-4-8,61,53,45,45,43,41,96,76,51,29.86,29.71,29.54,10,9,5,13,8,20,0.02,6,Rain,274
2014-4-9,64,52,41,42,35,31,80,59,31,30.07,30.00,29.86,10,10,10,12,5,18,0.00,2,,312
2014-4-10,78,58,39,43,39,34,83,46,26,30.06,29.96,29.83,10,10,10,20,6,33,0.00,0,,190
2014-4-11,75,62,48,56,48,35,90,61,30,30.11,30.01,29.94,10,9,2,15,7,21,0.16,5,Rain,288
2014-4-12,82,61,41,53,47,37,89,59,35,30.17,30.05,29.88,10,10,10,14,4,23,0.00,2,,178
2014-4-13,84,75,68,56,51,43,59,43,26,29.94,29.86,29.74,10,10,10,17,9,32,0.00,0,,202
2014-4-14,75,59,41,59,50,37,89,73,40,29.82,29.72,29.66,10,9,3,18,11,29,0.36,7,Rain,265
2014-4-15,43,36,28,36,29,17,100,79,41,30.29,29.99,29.84,10,7,1,20,12,26,0.19,7,Rain-Snow,318
2014-4-16,52,38,25,26,21,14,81,52,31,30.46,30.36,30.28,10,10,10,15,4,22,0.00,0,,100
2014-4-17,72,51,32,42,32,25,82,52,26,30.37,30.31,30.27,10,10,10,13,4,23,0.00,0,,171
2014-4-18,73,56,41,46,40,37,93,59,29,30.32,30.27,30.22,10,10,10,6,1,,0.00,1,,18
2014-4-19,69,58,46,45,40,36,74,52,32,30.35,30.29,30.25,10,10,9,13,6,21,0.00,0,,50
2014-4-20,79,58,39,49,38,32,83,54,19,30.30,30.22,30.12,10,10,10,7,1,,0.00,0,,294
2014-4-21,82,62,44,54,46,41,93,58,29,30.10,30.00,29.86,10,9,6,10,2,17,0.00,1,,245
2014-4-22,69,58,46,57,47,31,87,62,31,29.99,29.85,29.78,10,9,6,20,8,28,0.00,4,,296
2014-4-23,62,50,37,36,33,30,76,57,37,30.13,30.08,30.00,10,10,10,9,5,17,0.00,0,,342
2014-4-24,66,57,48,37,31,25,64,41,22,30.14,30.01,29.79,10,10,10,13,8,,0.00,3,,101
2014-4-25,66,56,45,57,47,29,97,71,31,29.92,29.77,29.65,10,9,4,20,7,29,0.13,5,Rain,290
2014-4-26,82,62,42,50,44,40,93,57,28,29.97,29.91,29.88,10,10,8,17,4,24,0.00,0,,313
2014-4-27,73,60,46,47,42,37,71,51,38,30.07,29.96,29.86,10,10,10,16,9,,0.00,0,Rain,77
2014-4-28,73,61,50,64,53,41,96,83,48,29.89,29.75,29.66,10,8,1,13,7,17,0.95,7,Rain-Thunderstorm,109
2014-4-29,80,66,55,62,58,48,96,82,36,29.89,29.68,29.55,10,8,2,18,6,32,0.52,6,Rain-Thunderstorm,203
2014-4-30,73,64,53,56,52,45,93,74,44,29.91,29.81,29.75,10,10,10,13,5,23,0.04,7,Rain,242